Regional Weather Roundup
Issued by NWS Grand Forks, ND

Home | Current Version | Previous Version | Text Only | Print | Product List | Glossary On
Versions: 1 2 3 4 5 6 7 8 9 10 11 12 13 14 15 16 17 18 19 20 21 22 23 24 25 26 27 28 29 30 31 32 33 34 35 36 37 38 39 40 41 42 43 44 45 46 47 48 49 50
000
ASUS43 KFGF 240210
RWRFGF
PRAIRIE TO PINES  WEATHER ROUNDUP
NATIONAL WEATHER SERVICE EASTERN NORTH DAKOTA/GRAND FORKS ND
800 PM CST THU NOV 23 2017

 **SATELLITE DATA USED TO AUGMENT SKY COVER AT AUTOMATED STATIONS**
 *****  WEATHER ACROSS EASTERN NORTH DAKOTA  *****

CITY           SKY/WX    TMP DP  RH WIND       PRES   REMARKS
GRAND FORKS    FAIR      36  32  85 S14       29.37F
GRAND FRKS AFB FAIR      39  35  83 SW12      29.37F
GRAND FRKS NWS   N/A     36 N/A N/A S10         N/A
DEVILS LAKE    FAIR      47  36  65 SW17      29.37F
FARGO          FAIR      43  33  68 S14       29.46F
WAHPETON ARPT  NOT AVBL
$$

 ***** WEATHER ACROSS CENTRAL AND WESTERN NORTH DAKOTA  *****

CITY           SKY/WX    TMP DP  RH WIND       PRES   REMARKS
BISMARCK       FAIR      48  35  60 S7        29.49F
MINOT          FAIR      56  37  49 SW15      29.35F
JAMESTOWN      FAIR      53  39  59 SW15      29.45F
MINOT AFB      FAIR      55  37  51 W18G24    29.32F
GARRISON         N/A     52  38  58 SW17      29.41F
WILLISTON      FAIR      55  36  48 SW9       29.40F
DICKINSON      FAIR      54  36  50 SW16      29.50F
HETTINGER      FAIR      51  35  54 W5        29.59F
$$

 *****  OTHER AIRPORT OBSERVATIONS IN OUR AREA  *****

CITY           SKY/WX    TMP DP  RH WIND       PRES   REMARKS
WALHALLA       FAIR      46  43  87 VRB7G13   29.29F
GRAFTON AIRPOR FAIR      34  34 100 S12       29.36F
VALLEY CITY AR FAIR      48  41  76 SW18      29.46F
CANDO          FAIR      45  39  81 SW13      29.35F
CAVALIER APRT  FAIR      34  32  93 S15       29.30F WCI  24
GWINNER          N/A     48  37  66 SW12      29.51F
SHEYENNE NWR     N/A     51  38  62 SW14      29.95S
ROLLA          FAIR      45  39  81 W17       29.31F
 ***** THE ABOVE OBSERVATIONS ARE NON NWS ARE NOT QUALITY
       CONTROLLED AND MAY MIS-REPORT RAIN FOR SNOW...
$$

  *****  WEATHER ACROSS NORTHERN MINNESOTA  *****

CITY           SKY/WX    TMP DP  RH WIND       PRES   REMARKS
FLAG ISLAND    FAIR      28  25  86 S18       29.38F WCI  16
WARROAD        FAIR      30  27  86 S8        29.38F WCI  23
ROSEAU         FAIR      34  28  80 S12       29.37F
HALLOCK        FAIR      36  32  87 S20       29.33F
THF RVR FALLS  FAIR      36  32  85 S8        29.40F
BAUDETTE       FAIR      28  24  85 SE7       29.41F WCI  21
WASKISH        MOCLDY    36  30  80 S9G21     29.43F
CROOKSTON      FAIR      41  32  70 S17       29.41F
STEPHEN NDAWN    N/A     37  30  75 S17         N/A
GREENBUSH NDAW   N/A     36  30  80 S14         N/A
$$
  *****  WEATHER ACROSS CENTRAL AND WEST MINNESOTA  *****

CITY           SKY/WX    TMP DP  RH WIND       PRES   REMARKS
FOSSTON        FAIR      39  32  75 S17G24    29.44F
BEMIDJI        CLOUDY    37  30  77 S12       29.47F
PARK RAPIDS    FAIR      36  29  75 S10       29.52F
ELBOW LAKE     FAIR      40  32  73 S14       29.55F
WADENA         FAIR      36  28  75 S8        29.54F
DETROIT LAKES  FAIR      37  32  81 S7        29.51F
MOORHEAD       FAIR      39  30  70 S15       29.49F
FERGUS FALLS   FAIR      41  30  65 S10       29.55F
MORRIS MN      FAIR      45  34  65 SE9       29.56F
STAPLES        FAIR      36  28  75 S8        29.56F
$$
  *****  WEATHER ELSEWHERE ACROSS MINNESOTA  *****

CITY           SKY/WX    TMP DP  RH WIND       PRES   REMARKS
DULUTH         FAIR      34  24  67 SW13      29.59F WCI  25
INTRNTL FALLS  FAIR      32  24  72 VRB7      29.46F
ELY            FAIR      32  25  74 S5        29.55F
CLOQUET        FAIR      36  21  55 S8        29.60F
WHEATON        NOT AVBL
BRAINERD       FAIR      37  27  67 S9        29.58F
HIBBING        FAIR      32  24  72 S6        29.55F
ALEXANDRIA     FAIR      45  33  63 S16       29.57F
SAINT CLOUD    FAIR      39  29  67 S12       29.62F
MINNEAPOLIS    FAIR      38  28  67 SE7       29.69F
$$

  *****  WEATHER ACROSS SOUTH DAKOTA  *****

CITY           SKY/WX    TMP DP  RH WIND       PRES   REMARKS
SIOUX FALLS    CLOUDY    56  41  57 S12       29.67F
BROOKINGS      FAIR      47  37  68 S12       29.65F
WATERTOWN      FAIR      43  37  79 S9        29.60F
HURON          FAIR      51  41  68 S9        29.60F
SISSETON         N/A     56  40  55 SW18      29.52F
ABERDEEN       FAIR      43  37  79 S12       29.56F
MITCHELL       FAIR      56  42  59 S9        29.65F
PIERRE         FAIR      60  39  45 SW13      29.60F
MOBRIDGE       FAIR      59  40  49 S9        29.53F
RAPID CITY     FAIR      52  32  46 W7        29.69F
$$

  *****  SOME WEATHER IN NEARBY STATES *****

CITY           SKY/WX    TMP DP  RH WIND       PRES   REMARKS
GLASGOW MT     FAIR      57  37  47 SW8       29.44F
GREAT FALLS MT FAIR      53  40  61 SW28G41   29.53F
CHEYENNE WY    FAIR      54  30  40 W13       29.99F
SCOTTSBLUFF NE FAIR      52  35  52 W8        29.86F
OMAHA NE       MOCLDY    54  38  54 S10       29.81F
DES MOINES IA  FAIR      46  32  58 S10       29.85F
DAVENPORT IA   FLURRIES  34  25  69 S7        29.93F
CHICAGO IL     FAIR      38  25  59 SW6       29.92S
EAU CLAIRE WI  CLOUDY    37  22  54 S10       29.74F
LA CROSSE WI   FAIR      39  25  57 S12       29.81F
$$

  *****  SOME NATIONAL WEATHER *****

CITY           SKY/WX    TMP DP  RH WIND       PRES   REMARKS
LA GUARDIA NY  FAIR      42  22  44 W7        30.02R
RALEIGH NC     FAIR      34  29  82 CALM      30.07F
ATLANTA GA     FAIR      51  40  65 E3        30.01S
NEW ORLEANS LA FAIR      55  39  54 N7        30.05R
OKLAHOMA CITY  FAIR      52  33  48 S8        29.99F
ALBUQUERQUE NM FAIR      52  29  41 E5        30.19S
SALT LAKE CITY MOCLDY    52  44  74 CALM      30.09S
LOS ANGELES CA FAIR      72  52  49 W7        29.91S
BOISE ID       MOCLDY    59  44  57 S8        29.92S
SEATTLE WA     FAIR      50  45  83 S16       29.90R
$$

*** WEATHER ACROSS MANITOBA...SASKATCHEWAN AND ONTARIO ***
                ***ONTARIO***

CITY           SKY/WX    TMP DP  RH WIND       PRES   REMARKS
GERALDTON      CLOUDY    10   5  79 SE5       29.70F WCI   2
THUNDER BAY    FLURRIES  30  25  80 E6        29.65F WCI  24
SIOUX LOOKOUT  CLOUDY    23  19  86 SE8       29.45F WCI  14
TORONTO        CLOUDY    36  23  60 SW13G22   29.91F
BIG TROUT LK   MOCLDY     5   0  78 S9        29.57F WCI  -9
PICKLE LAKE    LGT SNOW   9   5  85 SE7       29.53F VSB 1   WCI  -3
DRYDEN         CLOUDY    27  21  80 S9G17     29.41F WCI  17
KENORA         FRZ RAIN  28  25  86 S15G24    29.36F WCI  17
$$
                *** MANITOBA***

CITY           SKY/WX    TMP DP  RH WIND       PRES   REMARKS
BRANDON        PTCLDY    28  27  93 W12       29.22F WCI  18
DAUPHIN        CLEAR     19  19 100 W10       29.17F WCI   8
ISLAND LAKE    LGT SNOW   9   5  85 SE18      29.34F WCI -10
PILOT MOUND      N/A     41  36  81 SW14        N/A
THE PAS        FLURRIES  14   9  79 S3        29.22S
THOMPSON       LGT SNOW   1  -2  85 E7        29.31F VSB 1   WCI -11
WINNIPEG       CLOUDY    34  30  86 S22       29.25F WCI  22
LYNN LAKE      FLURRIES   0  -2  92 E12       29.21F WCI -18
CHURCHILL      CLEAR     -9 -15  77 W7        29.46F WCI -24
$$
                ***SASKATCHEWAN***

CITY           SKY/WX    TMP DP  RH WIND       PRES   REMARKS
ESTEVAN        MOCLDY    54  37  54 W14G21    29.31F
KINDERSLEY     DRIZZLE   37  34  87 W6        29.37R
LLOYDMINSTER   PTCLDY    36  32  87 SW16      29.25S
PRINCE ALBERT  CLOUDY    23  21  93 SW8       29.21F FOG     WCI  14
REGINA         PTCLDY    36  34  93 W8        29.32F
YORKTON        PTCLDY    37  34  87 W7        29.22S
N. BATTLEFORD  MOCLDY    39  30  70 W9        29.26F
LA RONGE       MOCLDY    18  16  93 SE8       29.09F WCI   7
SASKATOON      CLOUDY    36  32  87 SW14      29.27F
SWIFT CURRENT  CLOUDY    36  34  93 W7        29.38F
$$
NOTE: THESE ARE AUTOMATED STATIONS WITH LIMITED QUALITY CONTROL
      "FAIR" INDICATES FEW OR NO CLOUDS BELOW 12,000 FEET WITH NO
      SIGNIFICANT WEATHER AND/OR OBSTRUCTIONS TO VISIBILITY.
      SKY/WX - SKY CONDITION AND SIGNIFICANT WEATHER.
      TMP - AIR TEMPERATURE.    DP   - DEWPOINT TEMPERATURE.
      RH  - RELATIVE HUMIDITY.  PRES - PRESSURE.
      HX  - HEAT INDEX.         WCI  - WIND CHILL INDEX.
$




USA.gov is the U.S. government's official web portal to all federal, state and local government web resources and services.